Wind_Speed
8 8 8 8 7 6 3 4 5 4 4 5 4 4 5 4 5 5 8 10 18 10 11 6 9 10 10 11 10 8 10 14 16 5 8 10 7 5 1 4 2 3 7 7 7
7 7 8 8 7 5 5 3 3 4 4 4 4 4 4 4 6 9 12 13 16 12 7 11 13 12 15 10 3 3 14 20 14 12 12 13 5 10 5 8 7 6 4 4 4
8 7 8 8 7 4 2 1 3 4 4 5 5 6 4 5 3 8 9 11 13 13 6 9 10 13 18 16 17 16 17 20 19 14 11 14 14 12 11 13 9 10 8 6 4
7 6 7 7 5 3 2 2 4 5 6 7 8 6 5 5 2 1 6 9 10 11 9 11 13 17 17 18 16 15 16 20 20 12 17 13 17 19 15 16 9 5 6 7 9
6 6 6 6 5 4 4 5 7 9 10 9 6 7 6 6 5 5 7 8 9 6 11 13 15 17 17 17 12 13 18 13 20 12 16 17 21 20 24 24 9 8 9 12 12
6 6 6 6 5 5 7 10 12 11 8 5 5 6 5 6 3 5 4 3 4 8 9 11 11 11 13 8 10 11 13 8 15 13 16 15 16 24 25 21 11 14 15 13 12
6 7 8 9 9 10 14 14 11 8 6 5 7 6 8 8 5 4 4 2 5 6 7 4 5 9 6 10 14 11 14 14 15 14 13 10 15 23 22 7 12 14 14 14 11
6 8 11 12 14 14 13 11 8 7 7 7 8 1 3 3 3 5 4 4 4 5 2 5 6 10 8 3 7 14 15 15 21 15 9 7 15 1 9 8 13 15 14 13 12
5 9 10 11 11 11 9 7 6 6 5 5 3 5 9 2 4 3 4 5 5 6 5 5 7 13 8 12 13 15 14 19 10 10 9 12 14 14 6 6 11 12 13 12 12
5 8 8 7 7 6 4 4 5 4 4 6 2 8 6 5 3 1 1 5 8 7 8 10 10 11 12 13 14 10 19 14 6 12 7 13 15 14 13 8 13 15 13 12 12
4 6 6 4 4 2 2 4 4 4 8 6 5 3 7 4 1 1 3 5 7 9 12 12 12 14 10 2 11 10 10 11 1 5 5 14 15 11 14 17 12 17 10 10 5
4 4 5 3 3 5 3 6 5 4 1 2 3 3 2 3 3 3 3 8 9 12 5 8 14 9 4 4 7 7 9 11 3 3 7 15 15 15 16 8 11 7 7 4 5
6 2 4 2 1 2 2 2 3 4 6 4 3 5 5 1 5 6 3 3 5 5 7 10 13 4 6 7 9 10 8 10 9 13 17 20 17 19 7 4 5 7 3 3 3
5 4 3 2 3 3 2 4 3 3 6 9 8 5 6 1 5 3 2 5 6 4 4 4 7 4 8 9 3 12 9 5 11 11 11 12 13 14 15 11 7 8 8 6 4
3 2 2 4 5 5 3 4 3 4 5 6 6 3 2 4 3 6 3 6 6 5 7 7 1 4 8 5 4 12 7 12 13 14 15 15 10 12 6 6 11 6 5 4 5
6 4 3 4 4 5 5 5 2 7 2 6 4 4 8 2 3 3 1 2 3 3 3 6 2 4 8 2 4 9 12 15 15 14 13 11 4 4 7 7 6 10 6 4 4
5 5 3 1 4 5 2 5 7 6 3 6 4 5 2 3 5 2 2 5 7 5 6 3 5 4 6 9 8 7 11 8 4 8 7 6 6 8 8 11 8 8 6 8 3
5 3 6 2 3 2 3 9 11 6 1 3 3 3 3 2 4 0 3 5 7 10 9 5 8 4 2 5 9 8 6 6 7 9 15 17 13 5 7 5 2 5 7 2 6
7 6 3 7 4 4 9 9 5 3 4 3 5 8 7 4 6 3 2 7 6 8 8 7 3 3 1 6 6 3 5 9 9 16 13 14 15 8 12 7 9 11 8 13 18
3 6 4 8 5 4 9 3 2 3 4 4 7 3 4 4 6 2 3 5 2 6 7 5 8 6 3 5 10 7 9 7 7 8 13 11 17 10 9 9 4 2 3 7 14
2 7 1 5 3 10 8 5 5 4 4 5 3 2 3 3 6 2 4 6 3 4 6 5 3 3 4 7 7 4 10 7 3 8 12 13 8 7 11 7 9 7 16 13 13
3 6 3 3 11 6 2 3 1 2 0 1 4 4 4 2 4 3 3 5 3 6 7 7 6 9 13 11 6 8 12 11 7 11 12 14 15 19 6 4 19 22 21 22 21
7 4 5 4 5 5 3 4 2 2 1 1 1 2 1 2 2 3 0 7 4 5 8 8 3 6 5 9 6 5 4 7 11 11 15 13 14 20 24 25 25 23 22 22 25
6 3 4 1 2 8 2 3 4 1 1 3 3 5 4 5 4 4 4 5 1 4 5 4 8 11 9 13 16 14 17 16 16 4 16 17 26 22 21 18 20 20 22 25 26
5 4 4 2 5 3 3 2 3 3 2 2 3 5 3 2 9 8 1 4 7 6 5 4 10 11 14 15 16 18 19 18 18 18 18 20 23 21 18 17 23 24 24 28 31
8 6 2 4 2 4 2 2 3 3 3 3 6 2 5 6 3 9 10 5 6 6 4 3 7 11 17 17 16 14 16 18 18 17 19 19 20 17 26 27 24 28 30 34 38
8 6 5 3 1 5 4 3 2 3 3 4 6 6 7 6 7 9 9 10 11 9 9 10 5 5 6 12 13 12 8 8 14 13 15 16 18 24 22 24 28 30 33 39 37
Wind_Direction
344 344 345 341 336 335 311 267 255 250 241 230 230 232 232 211 208 213 224 220 213 211 208 209 221 228 235 241 248 291 272 266 270 252 271 96 268 119 322 277 41 38 43 88 143
345 342 342 339 331 317 299 281 237 227 227 206 195 201 188 176 201 228 224 231 223 199 181 211 214 210 222 214 263 212 277 262 322 336 320 330 303 321 300 230 205 174 142 147 169
350 348 344 344 338 331 314 257 195 193 187 170 155 145 162 155 245 154 242 216 196 192 208 215 235 218 228 216 197 217 232 270 276 289 294 295 297 284 272 274 276 252 178 180 215
356 358 356 2 8 31 58 112 148 149 143 136 132 135 164 147 260 129 178 167 177 181 215 217 226 226 232 231 228 238 235 243 273 266 279 273 289 285 287 275 319 308 301 275 258
8 12 14 20 26 46 81 111 122 124 124 125 127 144 189 208 77 137 132 148 162 200 206 215 229 233 240 240 219 229 249 220 260 249 265 277 280 282 276 279 283 268 259 257 256
25 28 33 35 49 76 103 115 117 116 114 113 140 173 232 218 132 142 114 177 183 185 204 220 230 248 278 248 239 274 260 236 238 246 247 251 261 269 260 260 263 258 263 260 257
44 51 63 64 79 100 110 111 106 98 91 102 140 174 263 119 157 170 164 176 176 172 194 206 217 217 249 236 238 267 253 242 241 246 247 257 259 246 241 236 258 265 262 259 258
65 84 86 84 96 104 104 98 84 71 80 109 152 178 80 131 182 187 202 192 196 200 203 211 236 256 239 275 233 243 235 254 223 198 217 226 273 139 149 217 255 262 260 255 253
90 109 99 97 104 106 94 71 59 64 92 117 169 259 124 81 153 186 217 214 198 207 220 237 234 239 201 234 237 222 254 234 157 191 248 199 265 121 178 248 264 265 261 253 252
112 129 114 105 115 106 63 43 59 73 96 129 236 252 169 101 115 163 225 208 210 207 213 223 225 224 219 218 242 283 213 241 278 163 209 261 259 268 219 194 266 268 272 270 269
118 145 137 107 117 92 347 310 231 202 217 341 50 57 129 131 167 207 254 203 211 224 232 206 230 220 225 268 338 305 301 300 32 62 289 272 275 285 283 271 267 264 275 279 291
74 155 159 126 74 34 4 297 7 352 229 123 111 111 122 124 167 74 164 230 206 221 212 210 228 41 3 284 269 268 266 263 278 263 266 278 273 277 264 268 272 293 258 243 199
47 114 177 156 18 32 20 347 323 297 248 146 145 138 140 190 40 56 277 256 254 224 221 288 53 93 231 207 251 239 283 329 324 321 277 257 274 253 159 242 214 229 221 197 150
43 61 106 198 289 274 235 339 311 295 245 145 178 136 198 171 91 11 351 304 218 342 249 307 62 288 243 261 308 291 33 291 289 291 292 343 292 290 163 188 194 176 210 167 134
8 312 273 260 306 284 296 304 252 287 233 141 121 102 174 265 98 94 12 262 5 59 259 78 170 252 255 27 10 305 334 297 288 280 286 272 246 262 161 201 168 174 194 187 183
3 344 313 319 282 285 296 271 269 238 125 142 168 195 186 171 85 131 103 17 332 296 313 43 357 317 2 327 297 318 278 268 255 255 262 239 316 283 76 55 17 140 175 200 211
324 353 340 19 310 306 252 187 234 270 124 158 163 232 350 120 146 312 17 48 359 279 173 159 115 118 323 270 186 252 289 288 256 213 254 100 289 297 32 51 359 336 169 175 208
258 355 349 331 308 299 223 238 264 41 16 73 264 187 262 290 118 209 237 176 74 337 297 308 175 170 54 332 326 305 320 298 297 306 316 322 284 264 123 133 48 338 318 35 201
246 291 288 310 287 270 258 241 7 9 27 292 190 264 149 155 299 262 44 7 32 6 336 319 143 127 6 294 296 90 280 6 304 268 265 276 276 251 129 128 86 48 27 23 10
229 261 243 320 296 242 242 319 55 59 311 251 276 339 305 91 271 241 110 63 61 4 339 42 293 108 66 269 228 277 353 293 235 282 283 292 315 307 48 79 82 36 16 345 338
222 246 128 298 272 235 258 77 109 73 354 320 344 271 349 323 299 301 30 97 334 34 323 332 262 155 211 226 334 269 262 217 274 300 297 302 283 74 352 331 348 298 293 322 298
263 252 7 287 242 251 117 43 2 62 323 39 325 358 314 8 302 287 320 52 15 338 319 43 302 284 291 323 6 286 288 298 287 285 289 290 285 290 305 311 320 315 325 323 325
300 330 342 237 273 178 118 128 54 239 23 310 187 323 324 298 346 276 305 107 14 324 353 8 258 302 311 170 171 247 265 289 291 295 278 281 274 304 316 317 321 324 333 328 322
295 248 112 110 18 339 198 164 147 23 109 292 337 275 265 242 184 269 225 142 245 312 358 286 255 254 264 298 319 298 289 286 283 241 274 269 287 300 298 316 335 340 325 316 315
343 65 332 36 71 23 272 358 247 182 283 286 214 272 309 341 316 271 32 239 229 110 216 289 277 282 283 293 290 284 282 282 276 277 276 287 289 306 321 346 333 321 323 326 321
353 334 305 84 328 276 124 78 311 96 299 158 279 61 291 271 231 289 318 288 281 158 261 290 285 302 291 281 274 285 289 288 282 280 283 295 298 324 334 323 329 330 330 318 309
0 329 308 110 194 273 73 48 55 317 148 319 324 304 264 12 347 312 300 288 281 281 286 279 287 325 277 328 312 294 307 341 322 313 310 303 322 324 324 344 335 325 313 312 316
Height
1512 1510 1508 1506 1504 1503 1502 1502 1502 1502 1502 1502 1502 1503 1503 1502 1503 1504 1507 1505 1506 1507 1509 1513 1514 1515 1515 1513 1514 1510 1507 1499 1485 1479 1479 1479 1486 1488 1494 1491 1495 1497 1496 1502 1505
1511 1509 1507 1506 1504 1502 1501 1501 1501 1501 1501 1502 1502 1503 1504 1502 1502 1504 1503 1503 1505 1506 1509 1512 1511 1513 1511 1509 1510 1511 1509 1500 1490 1487 1488 1485 1491 1488 1493 1490 1492 1497 1501 1503 1504
1510 1509 1507 1505 1503 1501 1501 1500 1500 1501 1501 1502 1503 1504 1504 1502 1504 1500 1501 1502 1503 1505 1508 1510 1509 1509 1506 1503 1507 1507 1511 1501 1496 1497 1497 1497 1494 1493 1493 1491 1489 1490 1494 1501 1504
1509 1508 1506 1504 1503 1501 1501 1500 1500 1501 1502 1503 1504 1504 1504 1502 1497 1500 1501 1501 1503 1503 1508 1508 1508 1505 1501 1497 1499 1505 1502 1504 1500 1498 1501 1496 1496 1495 1493 1493 1492 1498 1499 1502 1503
1509 1508 1506 1505 1503 1502 1502 1501 1501 1502 1503 1504 1504 1504 1504 1502 1502 1503 1502 1502 1503 1505 1506 1506 1504 1501 1495 1493 1493 1500 1498 1500 1502 1498 1500 1500 1495 1496 1497 1495 1494 1500 1502 1502 1502
1509 1508 1506 1505 1504 1503 1503 1503 1504 1505 1505 1505 1505 1504 1503 1500 1505 1505 1505 1504 1504 1504 1504 1504 1502 1499 1496 1492 1495 1492 1493 1496 1498 1497 1498 1499 1497 1498 1494 1494 1496 1499 1500 1498 1499
1510 1509 1507 1506 1505 1505 1505 1506 1507 1507 1507 1506 1506 1505 1504 1502 1505 1505 1506 1505 1505 1504 1503 1503 1502 1503 1496 1495 1496 1497 1497 1492 1490 1494 1494 1495 1497 1491 1488 1492 1496 1496 1496 1496 1497
1511 1511 1510 1509 1509 1509 1509 1509 1509 1509 1508 1508 1507 1506 1504 1506 1505 1505 1505 1505 1505 1505 1504 1505 1504 1501 1499 1495 1498 1496 1493 1492 1475 1487 1492 1499 1493 1470 1484 1492 1494 1493 1492 1494 1496
1513 1513 1512 1512 1512 1512 1511 1511 1510 1510 1509 1509 1509 1506 1503 1505 1505 1505 1505 1504 1504 1505 1505 1505 1504 1499 1498 1496 1493 1486 1489 1478 1479 1485 1486 1492 1487 1483 1489 1491 1492 1491 1490 1491 1493
1514 1515 1515 1514 1514 1513 1513 1512 1511 1511 1510 1509 1508 1509 1504 1503 1505 1506 1505 1505 1504 1504 1504 1503 1499 1494 1489 1485 1491 1476 1474 1474 1475 1480 1489 1487 1483 1479 1480 1485 1490 1487 1488 1489 1491
1515 1516 1516 1516 1516 1515 1514 1512 1514 1512 1510 1506 1503 1502 1503 1505 1506 1505 1505 1504 1503 1501 1495 1495 1491 1485 1473 1475 1478 1479 1479 1479 1473 1479 1494 1490 1481 1477 1479 1481 1486 1485 1485 1488 1491
1517 1517 1517 1517 1517 1516 1514 1511 1511 1512 1506 1506 1506 1504 1505 1504 1501 1503 1504 1501 1499 1491 1492 1491 1487 1480 1487 1488 1487 1484 1483 1481 1476 1482 1492 1488 1482 1477 1477 1478 1483 1485 1487 1490 1493
1519 1518 1518 1518 1518 1517 1516 1514 1513 1512 1503 1505 1505 1503 1504 1503 1502 1503 1501 1499 1492 1490 1487 1482 1484 1491 1491 1490 1491 1484 1487 1485 1491 1486 1483 1477 1478 1462 1470 1481 1485 1489 1490 1492 1493
1521 1520 1519 1519 1519 1517 1515 1515 1514 1513 1499 1503 1501 1503 1504 1502 1503 1505 1503 1500 1494 1489 1490 1483 1491 1491 1490 1488 1490 1491 1486 1494 1494 1493 1491 1473 1491 1466 1465 1477 1483 1486 1490 1492 1495
1522 1521 1520 1519 1518 1516 1516 1516 1515 1514 1506 1498 1499 1502 1502 1499 1501 1502 1504 1498 1495 1494 1493 1493 1493 1492 1492 1489 1495 1494 1495 1494 1492 1491 1487 1477 1478 1462 1464 1470 1473 1485 1488 1492 1495
1523 1521 1519 1518 1517 1517 1516 1515 1515 1510 1507 1497 1496 1496 1497 1499 1500 1502 1502 1502 1501 1496 1495 1495 1499 1497 1494 1497 1499 1497 1495 1487 1483 1482 1489 1466 1477 1467 1465 1473 1473 1478 1488 1492 1495
1522 1520 1518 1517 1517 1516 1515 1516 1510 1501 1494 1498 1494 1495 1493 1497 1499 1500 1499 1501 1499 1502 1496 1497 1496 1501 1501 1496 1494 1495 1493 1491 1486 1480 1480 1471 1482 1472 1466 1472 1480 1481 1482 1490 1496
1521 1520 1519 1518 1517 1516 1516 1512 1512 1496 1494 1498 1497 1495 1497 1499 1498 1501 1500 1498 1504 1504 1497 1496 1504 1499 1504 1502 1501 1497 1500 1501 1513 1497 1480 1466 1480 1461 1470 1478 1484 1487 1488 1488 1494
1520 1519 1520 1518 1515 1515 1515 1504 1494 1496 1499 1499 1497 1497 1497 1501 1503 1502 1503 1505 1511 1510 1511 1504 1499 1502 1506 1506 1504 1498 1497 1495 1505 1491 1490 1472 1462 1452 1461 1475 1484 1489 1493 1495 1497
1519 1519 1517 1516 1514 1515 1509 1508 1501 1506 1506 1503 1502 1502 1500 1501 1505 1502 1502 1513 1513 1516 1514 1509 1515 1499 1504 1508 1503 1503 1501 1508 1496 1514 1509 1481 1479 1472 1472 1480 1488 1493 1497 1501 1504
1518 1514 1514 1514 1514 1511 1501 1498 1504 1511 1510 1508 1505 1506 1506 1507 1508 1504 1505 1517 1519 1517 1517 1514 1515 1505 1506 1499 1499 1500 1498 1498 1500 1506 1511 1508 1490 1472 1481 1483 1487 1492 1493 1494 1498
1518 1510 1514 1514 1511 1502 1496 1505 1513 1511 1512 1511 1511 1510 1511 1513 1510 1509 1510 1515 1524 1522 1519 1518 1519 1516 1503 1496 1505 1508 1505 1502 1513 1517 1506 1505 1496 1478 1479 1486 1489 1490 1492 1495 1499
1516 1512 1513 1513 1501 1498 1509 1511 1513 1512 1514 1512 1513 1515 1515 1513 1525 1514 1516 1524 1527 1524 1522 1522 1516 1522 1509 1500 1505 1508 1503 1508 1509 1512 1519 1518 1499 1482 1487 1487 1490 1491 1494 1497 1499
1520 1509 1512 1513 1512 1508 1508 1508 1512 1519 1518 1518 1515 1518 1516 1514 1514 1516 1515 1522 1528 1528 1531 1532 1525 1523 1521 1507 1503 1509 1505 1503 1504 1520 1510 1504 1489 1491 1488 1487 1490 1495 1498 1498 1498
1523 1522 1522 1509 1513 1515 1515 1515 1512 1515 1519 1519 1517 1518 1518 1531 1515 1515 1516 1519 1521 1529 1530 1529 1525 1515 1509 1507 1507 1506 1505 1502 1503 1500 1504 1496 1490 1486 1488 1491 1495 1498 1499 1500 1501
1529 1527 1524 1521 1522 1517 1519 1516 1517 1519 1522 1517 1522 1519 1521 1523 1521 1525 1519 1521 1522 1522 1524 1527 1528 1521 1515 1508 1503 1504 1501 1501 1500 1498 1496 1493 1491 1489 1492 1497 1497 1500 1501 1502 1499
1535 1533 1530 1523 1520 1517 1516 1520 1522 1526 1525 1526 1527 1525 1522 1525 1528 1529 1529 1529 1528 1527 1527 1528 1528 1533 1524 1504 1506 1511 1501 1501 1501 1501 1503 1503 1497 1498 1497 1501 1504 1504 1503 1499 1494